Weather in Troitsk

Russia / Chelyabinsk Oblast     54°04′59″N   61°33′35″E
temp.,
°C
wind,
m/s
gust,
m/s
humid.,
%
clouds,
%
prec.,
mm/h
press.,
hPa
HPBL,
m
25 june, sat
sat2523:00+18nnw61195100 13.4 1008412
02:00+18nne4794100 4.9 1006224
05:00+17ene5119599 7.5 1004318
08:00+18ene579190 0.8 1004338
11:00+20nne5583100 1.0 1003686
14:00+19n4583100 0.7 1004581
17:00+18nw3474100 0.8 1004276
20:00+18w35760 0.0 1003149
26 june, sun
sun2623:00+16nw46855 0.0 100395
02:00+15nw4984100 0.0 1003284
05:00+14nw5108297 0.0 1004370
08:00+14nnw697835 0.0 1005723
11:00+16nw785997 0.1 10051709
14:00+15nnw6860100 0.1 10071660
17:00+15nw7965100 0.3 10071398
20:00+12nw7116983 0.1 1008917
27 june, mon
mon2723:00+10nw71071100 0.1 1009930
02:00+9nw697387 0.0 1010865
05:00+9nw697799 0.0 1011766
08:00+10nw677465 0.0 1012816
11:00+13nw5666100 0.0 10121181
14:00+16nw585752 0.0 10111542
17:00+19nw58493 0.0 10091542
20:00+17sw34670 0.0 100874
28 june, tue
tue2823:00+13sw498058 0.0 1007148
02:00+14w51278100 0.1 1005339
05:00+13nnw598687 0.1 1005569
08:00+11nnw6977100 0.1 1007882
11:00+12nnw786369 0.1 10081258
14:00+13nnw675378 0.0 10081779
17:00+10nnw796080 0.0 10091371
20:00+9nnw6969100 0.0 10101131
29 june, wed
wed2923:00+7nw61188100 0.1 1011890
02:00+7nw7117799 0.0 1010807
05:00+6nw6127838 0.0 1010600
08:00+8nw71073100 0.0 1009860
11:00+10nw7965100 0.1 10091357
14:00+8nw61377100 0.0 1010790
17:00+11nnw277774 0.0 1010471
20:00+12se227515 0.0 100949